Year,Month,Day,Hour,Minute,Value (Times are PST for temperature in C)
2016,04,19,00,00,14.40
2016,04,19,00,01,14.40
2016,04,19,00,02,14.30
2016,04,19,00,03,14.30
2016,04,19,00,04,14.30
2016,04,19,00,05,14.30
2016,04,19,00,06,14.30
2016,04,19,00,07,14.30
2016,04,19,00,08,14.30
2016,04,19,00,09,14.30
2016,04,19,00,10,14.30
2016,04,19,00,11,14.30
2016,04,19,00,12,14.30
2016,04,19,00,13,14.30
2016,04,19,00,14,14.30
2016,04,19,00,15,14.20
2016,04,19,00,16,14.20
2016,04,19,00,17,14.20
2016,04,19,00,18,14.20
2016,04,19,00,19,14.20
2016,04,19,00,20,14.20
2016,04,19,00,21,14.20
2016,04,19,00,22,14.20
2016,04,19,00,23,14.20
2016,04,19,00,24,14.10
2016,04,19,00,25,14.10
2016,04,19,00,26,14.10
2016,04,19,00,27,14.10
2016,04,19,00,28,14.10
2016,04,19,00,29,14.10
2016,04,19,00,30,14.00
2016,04,19,00,31,14.00
2016,04,19,00,32,14.00
2016,04,19,00,33,14.00
2016,04,19,00,34,14.00
2016,04,19,00,35,14.00
2016,04,19,00,36,14.00
2016,04,19,00,37,13.90
2016,04,19,00,38,13.90
2016,04,19,00,39,13.90
2016,04,19,00,40,13.90
2016,04,19,00,41,13.90
2016,04,19,00,42,13.80
2016,04,19,00,43,13.80
2016,04,19,00,44,13.80
2016,04,19,00,45,13.80
2016,04,19,00,46,13.70
2016,04,19,00,47,13.70
2016,04,19,00,48,13.70
2016,04,19,00,49,13.70
2016,04,19,00,50,13.70
2016,04,19,00,51,13.70
2016,04,19,00,52,13.70
2016,04,19,00,53,13.70
2016,04,19,00,54,13.70
2016,04,19,00,55,13.60
2016,04,19,00,56,13.60
2016,04,19,00,57,13.60
2016,04,19,00,58,13.60
2016,04,19,00,59,13.60
2016,04,19,01,00,13.60
2016,04,19,01,01,13.60
2016,04,19,01,02,13.60
2016,04,19,01,03,13.70
2016,04,19,01,04,13.70
2016,04,19,01,05,13.80
2016,04,19,01,06,13.90
2016,04,19,01,07,14.00
2016,04,19,01,08,14.10
2016,04,19,01,09,14.20
2016,04,19,01,10,14.20
2016,04,19,01,11,14.20
2016,04,19,01,12,14.30
2016,04,19,01,13,14.30
2016,04,19,01,14,14.30
2016,04,19,01,15,14.40
2016,04,19,01,16,14.40
2016,04,19,01,17,14.40
2016,04,19,01,18,14.40
2016,04,19,01,19,14.30
2016,04,19,01,20,14.30
2016,04,19,01,21,14.30
2016,04,19,01,22,14.30
2016,04,19,01,23,14.20
2016,04,19,01,24,14.20
2016,04,19,01,25,14.20
2016,04,19,01,26,14.10
2016,04,19,01,27,14.10
2016,04,19,01,28,14.00
2016,04,19,01,29,14.00
2016,04,19,01,30,13.90
2016,04,19,01,31,13.90
2016,04,19,01,32,13.80
2016,04,19,01,33,13.80
2016,04,19,01,34,13.70
2016,04,19,01,35,13.70
2016,04,19,01,36,13.70
2016,04,19,01,37,13.70
2016,04,19,01,38,13.70
2016,04,19,01,39,13.70
2016,04,19,01,40,13.60
2016,04,19,01,41,13.60
2016,04,19,01,42,13.60
2016,04,19,01,43,13.50
2016,04,19,01,44,13.50
2016,04,19,01,45,13.50
2016,04,19,01,46,13.50
2016,04,19,01,47,13.50
2016,04,19,01,48,13.40
2016,04,19,01,49,13.40
2016,04,19,01,50,13.40
2016,04,19,01,51,13.30
2016,04,19,01,52,13.30
2016,04,19,01,53,13.30
2016,04,19,01,54,13.30
2016,04,19,01,55,13.30
2016,04,19,01,56,13.30
2016,04,19,01,57,13.30
2016,04,19,01,58,13.30
2016,04,19,01,59,13.30
2016,04,19,02,00,13.30
2016,04,19,02,01,13.30
2016,04,19,02,02,13.20
2016,04,19,02,03,13.20
2016,04,19,02,04,13.20
2016,04,19,02,05,13.20
2016,04,19,02,06,13.20
2016,04,19,02,07,13.10
2016,04,19,02,08,13.10
2016,04,19,02,09,13.10
2016,04,19,02,10,13.10
2016,04,19,02,11,13.00
2016,04,19,02,12,13.00
2016,04,19,02,13,13.00
2016,04,19,02,14,13.00
2016,04,19,02,15,13.00
2016,04,19,02,16,12.90
2016,04,19,02,17,12.90
2016,04,19,02,18,12.90
2016,04,19,02,19,12.80
2016,04,19,02,20,12.80
2016,04,19,02,21,12.80
2016,04,19,02,22,12.80
2016,04,19,02,23,12.70
2016,04,19,02,24,12.70
2016,04,19,02,25,12.70
2016,04,19,02,26,12.70
2016,04,19,02,27,12.60
2016,04,19,02,28,12.60
2016,04,19,02,29,12.60
2016,04,19,02,30,12.60
2016,04,19,02,31,12.50
2016,04,19,02,32,12.50
2016,04,19,02,33,12.50
2016,04,19,02,34,12.50
2016,04,19,02,35,12.50
2016,04,19,02,36,12.50
2016,04,19,02,37,12.50
2016,04,19,02,38,12.50
2016,04,19,02,39,12.50
2016,04,19,02,40,12.30
2016,04,19,02,41,12.30
2016,04,19,02,42,12.30
2016,04,19,02,43,12.30
2016,04,19,02,44,12.30
2016,04,19,02,45,12.30
2016,04,19,02,46,12.30
2016,04,19,02,47,12.30
2016,04,19,02,48,12.30
2016,04,19,02,49,12.30
2016,04,19,02,50,12.30
2016,04,19,02,51,12.20
2016,04,19,02,52,12.20
2016,04,19,02,53,12.20
2016,04,19,02,54,12.20
2016,04,19,02,55,12.20
2016,04,19,02,56,12.20
2016,04,19,02,57,12.20
2016,04,19,02,58,12.20
2016,04,19,02,59,12.20
2016,04,19,03,00,12.20
2016,04,19,03,01,12.20
2016,04,19,03,02,12.10
2016,04,19,03,03,12.10
2016,04,19,03,04,12.10
2016,04,19,03,05,12.10
2016,04,19,03,06,12.10
2016,04,19,03,07,12.00
2016,04,19,03,08,12.00
2016,04,19,03,09,12.00
2016,04,19,03,10,12.00
2016,04,19,03,11,12.00
2016,04,19,03,12,11.90
2016,04,19,03,13,11.90
2016,04,19,03,14,11.90
2016,04,19,03,15,11.90
2016,04,19,03,16,11.90
2016,04,19,03,17,11.80
2016,04,19,03,18,11.80
2016,04,19,03,19,11.80
2016,04,19,03,20,11.80
2016,04,19,03,21,11.80
2016,04,19,03,22,11.80
2016,04,19,03,23,11.80
2016,04,19,03,24,11.80
2016,04,19,03,25,11.80
2016,04,19,03,26,11.80
2016,04,19,03,27,11.80
2016,04,19,03,28,11.80
2016,04,19,03,29,11.80
2016,04,19,03,30,11.80
2016,04,19,03,31,11.80
2016,04,19,03,32,11.80
2016,04,19,03,33,11.80
2016,04,19,03,34,11.80
2016,04,19,03,35,11.80
2016,04,19,03,36,11.80
2016,04,19,03,37,11.80
2016,04,19,03,38,11.80
2016,04,19,03,39,11.80
2016,04,19,03,40,11.80
2016,04,19,03,41,11.70
2016,04,19,03,42,11.70
2016,04,19,03,43,11.70
2016,04,19,03,44,11.70
2016,04,19,03,45,11.70
2016,04,19,03,46,11.70
2016,04,19,03,47,11.60
2016,04,19,03,48,11.60
2016,04,19,03,49,11.60
2016,04,19,03,50,11.60
2016,04,19,03,51,11.60
2016,04,19,03,52,11.60
2016,04,19,03,53,11.60
2016,04,19,03,54,11.60
2016,04,19,03,55,11.50
2016,04,19,03,56,11.40
2016,04,19,03,57,11.40
2016,04,19,03,58,11.40
2016,04,19,03,59,11.40
2016,04,19,04,00,11.40
2016,04,19,04,01,11.40
2016,04,19,04,02,11.40
2016,04,19,04,03,11.40
2016,04,19,04,04,11.40
2016,04,19,04,05,11.40
2016,04,19,04,06,11.40
2016,04,19,04,07,11.40
2016,04,19,04,08,11.40
2016,04,19,04,09,11.40
2016,04,19,04,10,11.40
2016,04,19,04,11,11.40
2016,04,19,04,12,11.40
2016,04,19,04,13,11.30
2016,04,19,04,14,11.30
2016,04,19,04,15,11.30
2016,04,19,04,16,11.30
2016,04,19,04,17,11.30
2016,04,19,04,18,11.30
2016,04,19,04,19,11.30
2016,04,19,04,20,11.30
2016,04,19,04,21,11.30
2016,04,19,04,22,11.30
2016,04,19,04,23,11.20
2016,04,19,04,24,11.20
2016,04,19,04,25,11.20
2016,04,19,04,26,11.20
2016,04,19,04,27,11.10
2016,04,19,04,28,11.10
2016,04,19,04,29,11.10
2016,04,19,04,30,11.10
2016,04,19,04,31,11.10
2016,04,19,04,32,11.10
2016,04,19,04,33,11.10
2016,04,19,04,34,11.10
2016,04,19,04,35,11.00
2016,04,19,04,36,10.90
2016,04,19,04,37,10.90
2016,04,19,04,38,10.90
2016,04,19,04,39,10.90
2016,04,19,04,40,10.90
2016,04,19,04,41,10.90
2016,04,19,04,42,10.90
2016,04,19,04,43,10.90
2016,04,19,04,44,10.90
2016,04,19,04,45,10.90
2016,04,19,04,46,10.90
2016,04,19,04,47,10.90
2016,04,19,04,48,10.90
2016,04,19,04,49,10.90
2016,04,19,04,50,10.90
2016,04,19,04,51,10.90
2016,04,19,04,52,10.90
2016,04,19,04,53,10.90
2016,04,19,04,54,10.90
2016,04,19,04,55,10.80
2016,04,19,04,56,10.80
2016,04,19,04,57,10.80
2016,04,19,04,58,10.80
2016,04,19,04,59,10.80
2016,04,19,05,00,10.80
2016,04,19,05,01,10.80
2016,04,19,05,02,10.80
2016,04,19,05,03,10.80
2016,04,19,05,04,10.80
2016,04,19,05,05,10.80
2016,04,19,05,06,10.80
2016,04,19,05,07,10.80
2016,04,19,05,08,10.80
2016,04,19,05,09,10.90
2016,04,19,05,10,10.90
2016,04,19,05,11,10.90
2016,04,19,05,12,10.90
2016,04,19,05,13,10.90
2016,04,19,05,14,10.90
2016,04,19,05,15,11.00
2016,04,19,05,16,11.10
2016,04,19,05,17,11.10
2016,04,19,05,18,11.10
2016,04,19,05,19,11.10
2016,04,19,05,20,11.00
2016,04,19,05,21,10.90
2016,04,19,05,22,10.90
2016,04,19,05,23,10.90
2016,04,19,05,24,10.90
2016,04,19,05,25,10.90
2016,04,19,05,26,10.90
2016,04,19,05,27,10.90
2016,04,19,05,28,10.80
2016,04,19,05,29,10.80
2016,04,19,05,30,10.80
2016,04,19,05,31,10.80
2016,04,19,05,32,10.80
2016,04,19,05,33,10.70
2016,04,19,05,34,10.70
2016,04,19,05,35,10.70
2016,04,19,05,36,10.70
2016,04,19,05,37,10.70
2016,04,19,05,38,10.70
2016,04,19,05,39,10.70
2016,04,19,05,40,10.60
2016,04,19,05,41,10.60
2016,04,19,05,42,10.60
2016,04,19,05,43,10.60
2016,04,19,05,44,10.60
2016,04,19,05,45,10.60
2016,04,19,05,46,10.60
2016,04,19,05,47,10.60
2016,04,19,05,48,10.60
2016,04,19,05,49,10.60
2016,04,19,05,50,10.60
2016,04,19,05,51,10.60
2016,04,19,05,52,10.60
2016,04,19,05,53,10.60
2016,04,19,05,54,10.60
2016,04,19,05,55,10.60
2016,04,19,05,56,10.60
2016,04,19,05,57,10.60
2016,04,19,05,58,10.60
2016,04,19,05,59,10.60
2016,04,19,06,00,10.60
2016,04,19,06,01,10.60
2016,04,19,06,02,10.60
2016,04,19,06,03,10.60
2016,04,19,06,04,10.70
2016,04,19,06,05,10.70
2016,04,19,06,06,10.70
2016,04,19,06,07,10.80
2016,04,19,06,08,10.80
2016,04,19,06,09,10.90
2016,04,19,06,10,10.90
2016,04,19,06,11,10.90
2016,04,19,06,12,10.90
2016,04,19,06,13,10.90
2016,04,19,06,14,10.90
2016,04,19,06,15,10.90
2016,04,19,06,16,10.90
2016,04,19,06,17,10.90
2016,04,19,06,18,10.90
2016,04,19,06,19,10.90
2016,04,19,06,20,10.90
2016,04,19,06,21,10.90
2016,04,19,06,22,10.90
2016,04,19,06,23,10.90
2016,04,19,06,24,10.90
2016,04,19,06,25,10.90
2016,04,19,06,26,10.90
2016,04,19,06,27,10.90
2016,04,19,06,28,10.90
2016,04,19,06,29,10.90
2016,04,19,06,30,10.90
2016,04,19,06,31,10.90
2016,04,19,06,32,10.90
2016,04,19,06,33,10.90
2016,04,19,06,34,10.90
2016,04,19,06,35,11.00
2016,04,19,06,36,11.10
2016,04,19,06,37,11.10
2016,04,19,06,38,11.10
2016,04,19,06,39,11.10
2016,04,19,06,40,11.10
2016,04,19,06,41,11.10
2016,04,19,06,42,11.10
2016,04,19,06,43,11.10
2016,04,19,06,44,11.10
2016,04,19,06,45,11.10
2016,04,19,06,46,11.10
2016,04,19,06,47,11.20
2016,04,19,06,48,11.20
2016,04,19,06,49,11.20
2016,04,19,06,50,11.20
2016,04,19,06,51,11.30
2016,04,19,06,52,11.30
2016,04,19,06,53,11.40
2016,04,19,06,54,11.40
2016,04,19,06,55,11.40
2016,04,19,06,56,11.40
2016,04,19,06,57,11.40
2016,04,19,06,58,11.40
2016,04,19,06,59,11.40
2016,04,19,07,00,11.40
2016,04,19,07,01,11.50
2016,04,19,07,02,11.60
2016,04,19,07,03,11.60
2016,04,19,07,04,11.60
2016,04,19,07,05,11.60
2016,04,19,07,06,11.60
2016,04,19,07,07,11.60
2016,04,19,07,08,11.70
2016,04,19,07,09,11.70
2016,04,19,07,10,11.70
2016,04,19,07,11,11.80
2016,04,19,07,12,11.80
2016,04,19,07,13,11.80
2016,04,19,07,14,11.80
2016,04,19,07,15,11.80
2016,04,19,07,16,11.90
2016,04,19,07,17,12.00
2016,04,19,07,18,12.00
2016,04,19,07,19,12.00
2016,04,19,07,20,12.10
2016,04,19,07,21,12.10
2016,04,19,07,22,12.10
2016,04,19,07,23,12.10
2016,04,19,07,24,12.20
2016,04,19,07,25,12.20
2016,04,19,07,26,12.20
2016,04,19,07,27,12.20
2016,04,19,07,28,12.30
2016,04,19,07,29,12.30
2016,04,19,07,30,12.30
2016,04,19,07,31,12.30
2016,04,19,07,32,12.40
2016,04,19,07,33,12.40
2016,04,19,07,34,12.50
2016,04,19,07,35,12.50
2016,04,19,07,36,12.50
2016,04,19,07,37,12.60
2016,04,19,07,38,12.60
2016,04,19,07,39,12.70
2016,04,19,07,40,12.70
2016,04,19,07,41,12.80
2016,04,19,07,42,12.80
2016,04,19,07,43,12.80
2016,04,19,07,44,12.80
2016,04,19,07,45,12.90
2016,04,19,07,46,12.90
2016,04,19,07,47,13.00
2016,04,19,07,48,13.00
2016,04,19,07,49,13.10
2016,04,19,07,50,13.10
2016,04,19,07,51,13.10
2016,04,19,07,52,13.20
2016,04,19,07,53,13.20
2016,04,19,07,54,13.30
2016,04,19,07,55,13.30
2016,04,19,07,56,13.30
2016,04,19,07,57,13.40
2016,04,19,07,58,13.50
2016,04,19,07,59,13.50
2016,04,19,08,00,13.50
2016,04,19,08,01,13.60
2016,04,19,08,02,13.60
2016,04,19,08,03,13.70
2016,04,19,08,04,13.70
2016,04,19,08,05,13.70
2016,04,19,08,06,13.80
2016,04,19,08,07,13.80
2016,04,19,08,08,13.90
2016,04,19,08,09,13.90
2016,04,19,08,10,14.00
2016,04,19,08,11,14.00
2016,04,19,08,12,14.10
2016,04,19,08,13,14.20
2016,04,19,08,14,14.20
2016,04,19,08,15,14.30
2016,04,19,08,16,14.40
2016,04,19,08,17,14.50
2016,04,19,08,18,14.60
2016,04,19,08,19,14.60
2016,04,19,08,20,14.70
2016,04,19,08,21,14.70
2016,04,19,08,22,14.70
2016,04,19,08,23,14.70
2016,04,19,08,24,14.80
2016,04,19,08,25,14.90
2016,04,19,08,26,14.90
2016,04,19,08,27,15.00
2016,04,19,08,28,15.00
2016,04,19,08,29,15.10
2016,04,19,08,30,15.20
2016,04,19,08,31,15.30
2016,04,19,08,32,15.30
2016,04,19,08,33,15.40
2016,04,19,08,34,15.50
2016,04,19,08,35,15.60
2016,04,19,08,36,15.70
2016,04,19,08,37,15.80
2016,04,19,08,38,15.80
2016,04,19,08,39,15.90
2016,04,19,08,40,15.90
2016,04,19,08,41,15.90
2016,04,19,08,42,16.10
2016,04,19,08,43,16.10
2016,04,19,08,44,16.30
2016,04,19,08,45,16.40
2016,04,19,08,46,16.50
2016,04,19,08,47,16.60
2016,04,19,08,48,16.70
2016,04,19,08,49,16.70
2016,04,19,08,50,16.80
2016,04,19,08,51,16.90
2016,04,19,08,52,17.00
2016,04,19,08,53,17.10
2016,04,19,08,54,17.10
2016,04,19,08,55,17.20
2016,04,19,08,56,17.30
2016,04,19,08,57,17.30
2016,04,19,08,58,17.40
2016,04,19,08,59,17.50
2016,04,19,09,00,17.60
2016,04,19,09,01,17.80
2016,04,19,09,02,18.00
2016,04,19,09,03,18.10
2016,04,19,09,04,18.20
2016,04,19,09,05,18.40
2016,04,19,09,06,18.50
2016,04,19,09,07,18.60
2016,04,19,09,08,18.70
2016,04,19,09,09,18.70
2016,04,19,09,10,18.80
2016,04,19,09,11,18.90
2016,04,19,09,12,18.90
2016,04,19,09,13,19.00
2016,04,19,09,14,19.10
2016,04,19,09,15,19.10
2016,04,19,09,16,19.20
2016,04,19,09,17,19.30
2016,04,19,09,18,19.40
2016,04,19,09,19,19.40
2016,04,19,09,20,19.40
2016,04,19,09,21,19.40
2016,04,19,09,22,19.50
2016,04,19,09,23,19.50
2016,04,19,09,24,19.60
2016,04,19,09,25,19.70
2016,04,19,09,26,19.80
2016,04,19,09,27,19.90
2016,04,19,09,28,19.90
2016,04,19,09,29,20.00
2016,04,19,09,30,20.10
2016,04,19,09,31,20.20
2016,04,19,09,32,20.20
2016,04,19,09,33,20.20
2016,04,19,09,34,20.20
2016,04,19,09,35,20.20
2016,04,19,09,36,20.20
2016,04,19,09,37,20.20
2016,04,19,09,38,20.20
2016,04,19,09,39,20.30
2016,04,19,09,40,20.30
2016,04,19,09,41,20.50
2016,04,19,09,42,20.50
2016,04,19,09,43,20.60
2016,04,19,09,44,20.60
2016,04,19,09,45,20.70
2016,04,19,09,46,20.80
2016,04,19,09,47,20.90
2016,04,19,09,48,20.90
2016,04,19,09,49,20.90
2016,04,19,09,50,20.80
2016,04,19,09,51,20.80
2016,04,19,09,52,20.80
2016,04,19,09,53,20.90
2016,04,19,09,54,21.00
2016,04,19,09,55,21.00
2016,04,19,09,56,20.90
2016,04,19,09,57,20.80
2016,04,19,09,58,20.70
2016,04,19,09,59,20.70
2016,04,19,10,00,20.70
2016,04,19,10,01,20.70
2016,04,19,10,02,20.70
2016,04,19,10,03,20.60
2016,04,19,10,04,20.60
2016,04,19,10,05,20.60
2016,04,19,10,06,20.70
2016,04,19,10,07,20.70
2016,04,19,10,08,20.70
2016,04,19,10,09,20.80
2016,04,19,10,10,20.80
2016,04,19,10,11,20.80
2016,04,19,10,12,20.80
2016,04,19,10,13,20.80
2016,04,19,10,14,20.80
2016,04,19,10,15,20.80
2016,04,19,10,16,20.80
2016,04,19,10,17,20.70
2016,04,19,10,18,20.70
2016,04,19,10,19,20.70
2016,04,19,10,20,20.80
2016,04,19,10,21,20.90
2016,04,19,10,22,21.00
2016,04,19,10,23,21.10
2016,04,19,10,24,21.20
2016,04,19,10,25,21.30
2016,04,19,10,26,21.20
2016,04,19,10,27,21.10
2016,04,19,10,28,21.00
2016,04,19,10,29,21.00
2016,04,19,10,30,21.00
2016,04,19,10,31,21.00
2016,04,19,10,32,21.10
2016,04,19,10,33,21.10
2016,04,19,10,34,21.20
2016,04,19,10,35,21.30
2016,04,19,10,36,21.30
2016,04,19,10,37,21.40
2016,04,19,10,38,21.50
2016,04,19,10,39,21.60
2016,04,19,10,40,21.60
2016,04,19,10,41,21.60
2016,04,19,10,42,21.60
2016,04,19,10,43,21.60
2016,04,19,10,44,21.60
2016,04,19,10,45,21.60
2016,04,19,10,46,21.70
2016,04,19,10,47,21.80
2016,04,19,10,48,21.90
2016,04,19,10,49,21.90
2016,04,19,10,50,22.00
2016,04,19,10,51,22.00
2016,04,19,10,52,22.10
2016,04,19,10,53,22.20
2016,04,19,10,54,22.30
2016,04,19,10,55,22.40
2016,04,19,10,56,22.50
2016,04,19,10,57,22.60
2016,04,19,10,58,22.70
2016,04,19,10,59,22.70
2016,04,19,11,00,22.60
2016,04,19,11,01,22.60
2016,04,19,11,02,22.70
2016,04,19,11,03,22.70
2016,04,19,11,04,22.70
2016,04,19,11,05,22.80
2016,04,19,11,06,22.70
2016,04,19,11,07,22.70
2016,04,19,11,08,22.70
2016,04,19,11,09,22.70
2016,04,19,11,10,22.70
2016,04,19,11,11,22.70
2016,04,19,11,12,22.80
2016,04,19,11,13,22.80
2016,04,19,11,14,22.80
2016,04,19,11,15,22.70
2016,04,19,11,16,22.70
2016,04,19,11,17,22.80
2016,04,19,11,18,22.90
2016,04,19,11,19,23.00
2016,04,19,11,20,23.10
2016,04,19,11,21,23.30
2016,04,19,11,22,23.30
2016,04,19,11,23,23.50
2016,04,19,11,24,23.60
2016,04,19,11,25,23.70
2016,04,19,11,26,23.70
2016,04,19,11,27,23.70
2016,04,19,11,28,23.70
2016,04,19,11,29,23.70
2016,04,19,11,30,23.50
2016,04,19,11,31,23.40
2016,04,19,11,32,23.40
2016,04,19,11,33,23.50
2016,04,19,11,34,23.60
2016,04,19,11,35,23.70
2016,04,19,11,36,23.70
2016,04,19,11,37,23.80
2016,04,19,11,38,23.80
2016,04,19,11,39,23.80
2016,04,19,11,40,23.80
2016,04,19,11,41,23.70
2016,04,19,11,42,23.70
2016,04,19,11,43,23.70
2016,04,19,11,44,23.80
2016,04,19,11,45,23.80
2016,04,19,11,46,23.80
2016,04,19,11,47,23.90
2016,04,19,11,48,23.90
2016,04,19,11,49,23.90
2016,04,19,11,50,24.00
2016,04,19,11,51,23.90
2016,04,19,11,52,24.00
2016,04,19,11,53,24.10
2016,04,19,11,54,24.00
2016,04,19,11,55,24.00
2016,04,19,11,56,24.00
2016,04,19,11,57,23.90
2016,04,19,11,58,24.10
2016,04,19,11,59,24.10
2016,04,19,12,00,24.20
2016,04,19,12,01,24.40
2016,04,19,12,02,24.40
2016,04,19,12,03,24.40
2016,04,19,12,04,24.50
2016,04,19,12,05,24.50
2016,04,19,12,06,24.40
2016,04,19,12,07,24.40
2016,04,19,12,08,24.40
2016,04,19,12,09,24.40
2016,04,19,12,10,24.50
2016,04,19,12,11,24.50
2016,04,19,12,12,24.60
2016,04,19,12,13,24.50
2016,04,19,12,14,24.50
2016,04,19,12,15,24.60
2016,04,19,12,16,24.70
2016,04,19,12,17,24.70
2016,04,19,12,18,24.60
2016,04,19,12,19,24.50
2016,04,19,12,20,24.30
2016,04,19,12,21,24.20
2016,04,19,12,22,24.30
2016,04,19,12,23,24.20
2016,04,19,12,24,24.20
2016,04,19,12,25,24.10
2016,04,19,12,26,24.30
2016,04,19,12,27,24.30
2016,04,19,12,28,24.30
2016,04,19,12,29,24.30
2016,04,19,12,30,24.50
2016,04,19,12,31,24.60
2016,04,19,12,32,24.70
2016,04,19,12,33,24.80
2016,04,19,12,34,24.90
2016,04,19,12,35,24.90
2016,04,19,12,36,25.00
2016,04,19,12,37,25.10
2016,04,19,12,38,25.10
2016,04,19,12,39,25.10
2016,04,19,12,40,25.10
2016,04,19,12,41,25.20
2016,04,19,12,42,25.20
2016,04,19,12,43,25.20
2016,04,19,12,44,25.20
2016,04,19,12,45,25.30
2016,04,19,12,46,25.30
2016,04,19,12,47,25.20
2016,04,19,12,48,25.10
2016,04,19,12,49,25.10
2016,04,19,12,50,25.10
2016,04,19,12,51,25.10
2016,04,19,12,52,25.20
2016,04,19,12,53,25.20
2016,04,19,12,54,25.10
2016,04,19,12,55,25.10
2016,04,19,12,56,25.20
2016,04,19,12,57,25.20
2016,04,19,12,58,25.10
2016,04,19,12,59,24.90
2016,04,19,13,00,24.90
2016,04,19,13,01,24.90
2016,04,19,13,02,24.90
2016,04,19,13,03,25.10
2016,04,19,13,04,25.20
2016,04,19,13,05,25.20
2016,04,19,13,06,25.30
2016,04,19,13,07,25.20
2016,04,19,13,08,25.30
2016,04,19,13,09,25.30
2016,04,19,13,10,25.40
2016,04,19,13,11,25.30
2016,04,19,13,12,25.30
2016,04,19,13,13,25.30
2016,04,19,13,14,25.30
2016,04,19,13,15,25.30
2016,04,19,13,16,25.40
2016,04,19,13,17,25.40
2016,04,19,13,18,25.50
2016,04,19,13,19,25.60
2016,04,19,13,20,25.40
2016,04,19,13,21,25.40
2016,04,19,13,22,25.40
2016,04,19,13,23,25.30
2016,04,19,13,24,25.10
2016,04,19,13,25,24.90
2016,04,19,13,26,24.80
2016,04,19,13,27,24.70
2016,04,19,13,28,24.80
2016,04,19,13,29,24.90
2016,04,19,13,30,25.00
2016,04,19,13,31,24.90
2016,04,19,13,32,24.90
2016,04,19,13,33,25.00
2016,04,19,13,34,25.10
2016,04,19,13,35,25.10
2016,04,19,13,36,25.30
2016,04,19,13,37,25.30
2016,04,19,13,38,25.40
2016,04,19,13,39,25.40
2016,04,19,13,40,25.40
2016,04,19,13,41,25.40
2016,04,19,13,42,25.30
2016,04,19,13,43,25.20
2016,04,19,13,44,25.20
2016,04,19,13,45,25.20
2016,04,19,13,46,25.20
2016,04,19,13,47,25.20
2016,04,19,13,48,25.20
2016,04,19,13,49,25.30
2016,04,19,13,50,25.40
2016,04,19,13,51,25.50
2016,04,19,13,52,25.50
2016,04,19,13,53,25.60
2016,04,19,13,54,25.50
2016,04,19,13,55,25.40
2016,04,19,13,56,25.40
2016,04,19,13,57,25.40
2016,04,19,13,58,25.40
2016,04,19,13,59,25.40
2016,04,19,14,00,25.30
2016,04,19,14,01,25.10
2016,04,19,14,02,24.90
2016,04,19,14,03,24.90
2016,04,19,14,04,24.80
2016,04,19,14,05,24.90
2016,04,19,14,06,24.90
2016,04,19,14,07,24.80
2016,04,19,14,08,24.70
2016,04,19,14,09,24.80
2016,04,19,14,10,24.90
2016,04,19,14,11,24.80
2016,04,19,14,12,24.80
2016,04,19,14,13,24.90
2016,04,19,14,14,25.00
2016,04,19,14,15,24.90
2016,04,19,14,16,24.60
2016,04,19,14,17,24.50
2016,04,19,14,18,24.30
2016,04,19,14,19,24.30
2016,04,19,14,20,24.40
2016,04,19,14,21,24.50
2016,04,19,14,22,24.60
2016,04,19,14,23,24.60
2016,04,19,14,24,24.60
2016,04,19,14,25,24.60
2016,04,19,14,26,24.50
2016,04,19,14,27,24.40
2016,04,19,14,28,24.30
2016,04,19,14,29,24.20
2016,04,19,14,30,24.10
2016,04,19,14,31,24.00
2016,04,19,14,32,23.90
2016,04,19,14,33,23.90
2016,04,19,14,34,23.90
2016,04,19,14,35,24.00
2016,04,19,14,36,24.10
2016,04,19,14,37,24.30
2016,04,19,14,38,24.20
2016,04,19,14,39,24.10
2016,04,19,14,40,24.10
2016,04,19,14,41,24.20
2016,04,19,14,42,24.20
2016,04,19,14,43,24.20
2016,04,19,14,44,24.20
2016,04,19,14,45,24.20
2016,04,19,14,46,24.10
2016,04,19,14,47,24.10
2016,04,19,14,48,24.10
2016,04,19,14,49,24.00
2016,04,19,14,50,23.80
2016,04,19,14,51,23.80
2016,04,19,14,52,23.80
2016,04,19,14,53,23.80
2016,04,19,14,54,23.80
2016,04,19,14,55,23.90
2016,04,19,14,56,23.90
2016,04,19,14,57,23.80
2016,04,19,14,58,23.60
2016,04,19,14,59,23.60
2016,04,19,15,00,23.60
2016,04,19,15,01,23.50
2016,04,19,15,02,23.40
2016,04,19,15,03,23.40
2016,04,19,15,04,23.40
2016,04,19,15,05,23.30
2016,04,19,15,06,23.30
2016,04,19,15,07,23.30
2016,04,19,15,08,23.40
2016,04,19,15,09,23.50
2016,04,19,15,10,23.60
2016,04,19,15,11,23.60
2016,04,19,15,12,23.70
2016,04,19,15,13,23.80
2016,04,19,15,14,24.00
2016,04,19,15,15,24.20
2016,04,19,15,16,24.20
2016,04,19,15,17,24.10
2016,04,19,15,18,24.10
2016,04,19,15,19,24.10
2016,04,19,15,20,24.10
2016,04,19,15,21,24.10
2016,04,19,15,22,24.10
2016,04,19,15,23,24.20
2016,04,19,15,24,24.40
2016,04,19,15,25,24.70
2016,04,19,15,26,24.90
2016,04,19,15,27,25.10
2016,04,19,15,28,25.10
2016,04,19,15,29,25.10
2016,04,19,15,30,25.00
2016,04,19,15,31,25.10
2016,04,19,15,32,25.00
2016,04,19,15,33,24.90
2016,04,19,15,34,24.90
2016,04,19,15,35,24.90
2016,04,19,15,36,24.90
2016,04,19,15,37,24.90
2016,04,19,15,38,24.90
2016,04,19,15,39,24.90
2016,04,19,15,40,24.90
2016,04,19,15,41,24.80
2016,04,19,15,42,24.70
2016,04,19,15,43,24.50
2016,04,19,15,44,24.50
2016,04,19,15,45,24.60
2016,04,19,15,46,24.80
2016,04,19,15,47,25.00
2016,04,19,15,48,25.10
2016,04,19,15,49,25.10
2016,04,19,15,50,25.20
2016,04,19,15,51,25.30
2016,04,19,15,52,25.40
2016,04,19,15,53,25.50
2016,04,19,15,54,25.50
2016,04,19,15,55,25.50
2016,04,19,15,56,25.50
2016,04,19,15,57,25.50
2016,04,19,15,58,25.50
2016,04,19,15,59,25.60
2016,04,19,16,00,25.70
2016,04,19,16,01,25.70
2016,04,19,16,02,25.60
2016,04,19,16,03,25.50
2016,04,19,16,04,25.50
2016,04,19,16,05,25.50
2016,04,19,16,06,25.70
2016,04,19,16,07,25.70
2016,04,19,16,08,25.60
2016,04,19,16,09,25.50
2016,04,19,16,10,25.40
2016,04,19,16,11,25.40
2016,04,19,16,12,25.30
2016,04,19,16,13,25.20
2016,04,19,16,14,25.10
2016,04,19,16,15,25.10
2016,04,19,16,16,25.20
2016,04,19,16,17,25.30
2016,04,19,16,18,25.40
2016,04,19,16,19,25.40
2016,04,19,16,20,25.50
2016,04,19,16,21,25.60
2016,04,19,16,22,25.60
2016,04,19,16,23,25.40
2016,04,19,16,24,25.40
2016,04,19,16,25,25.30
2016,04,19,16,26,25.40
2016,04,19,16,27,25.40
2016,04,19,16,28,25.40
2016,04,19,16,29,25.50
2016,04,19,16,30,25.60
2016,04,19,16,31,25.60
2016,04,19,16,32,25.50
2016,04,19,16,33,25.50
2016,04,19,16,34,25.50
2016,04,19,16,35,25.50
2016,04,19,16,36,25.50
2016,04,19,16,37,25.60
2016,04,19,16,38,25.80
2016,04,19,16,39,25.90
2016,04,19,16,40,26.00
2016,04,19,16,41,26.00
2016,04,19,16,42,26.00
2016,04,19,16,43,26.10
2016,04,19,16,44,26.10
2016,04,19,16,45,26.20
2016,04,19,16,46,26.30
2016,04,19,16,47,26.40
2016,04,19,16,48,26.40
2016,04,19,16,49,26.40
2016,04,19,16,50,26.40
2016,04,19,16,51,26.40
2016,04,19,16,52,26.30
2016,04,19,16,53,26.40
2016,04,19,16,54,26.40
2016,04,19,16,55,26.40
2016,04,19,16,56,26.30
2016,04,19,16,57,26.20
2016,04,19,16,58,26.10
2016,04,19,16,59,26.10
2016,04,19,17,00,26.00
2016,04,19,17,01,25.90
2016,04,19,17,02,25.80
2016,04,19,17,03,25.80
2016,04,19,17,04,25.80
2016,04,19,17,05,25.70
2016,04,19,17,06,25.70
2016,04,19,17,07,25.70
2016,04,19,17,08,25.60
2016,04,19,17,09,25.60
2016,04,19,17,10,25.50
2016,04,19,17,11,25.50
2016,04,19,17,12,25.40
2016,04,19,17,13,25.40
2016,04,19,17,14,25.50
2016,04,19,17,15,25.50
2016,04,19,17,16,25.60
2016,04,19,17,17,25.60
2016,04,19,17,18,25.60
2016,04,19,17,19,25.50